Location: Unspecified
(0.0000°N, 0.0000°E)
Time: 17:33:09
(UTC+02:00)

GP-B - Visible Passes

Search period start: 27 September 2016 00:00
Search period end: 07 October 2016 00:00
Orbit: 632 x 636 km, 89.9° (Epoch: 25 September)

Date Brightness Start Highest point End Pass type
(mag) Time Alt. Az. Time Alt. Az. Time Alt. Az.
03 Oct 5.4 21:43:08 15° S 21:43:08 15° S 21:43:53 10° S visible
04 Oct 5.4 22:03:32 20° SW 22:03:32 20° SW 22:05:15 10° SSW visible
05 Oct 4.2 20:46:07 22° E 20:46:07 22° E 20:49:33 10° SE visible
05 Oct 6.0 22:23:25 14° W 22:23:25 14° W 22:25:29 10° WSW visible
06 Oct 3.1 21:03:36 10° NNE 21:07:55 53° E 21:12:15 10° S visible
